Regional Weather Roundup
Issued by NWS

Home | Current Version | Previous Version | Graphics & Text | Print | Product List | Glossary Off
Versions: 1 2 3 4 5 6 7 8 9 10 11 12 13 14 15 16 17 18 19 20 21 22 23 24 25 26 27 28 29 30 31 32 33 34 35 36 37 38 39 40 41 42 43 44 45 46 47 48 49 50

000
ASUS43 KTOP 280608
RWRKS

WEATHER ROUNDUP FOR KANSAS
NATIONAL WEATHER SERVICE GOODLAND KS
100 AM CDT SAT MAY 28 2016

NOTE:  "FAIR" INDICATES FEW OR NO CLOUDS BELOW 12,000 FEET WITH NO
SIGNIFICANT WEATHER AND/OR OBSTRUCTIONS TO VISIBILITY.

KSZ001>006-013>018-027>032-041>047-280700-
NORTHWEST KANSAS

CITY           SKY/WX    TMP DP  RH WIND       PRES   REMARKS
GOODLAND       CLEAR     47  45  93 W9        29.86R
6HR MIN TEMP:  46; 6HR MAX TEMP:  55; 6HR PCP:  0.02;

HAYS           CLOUDY    55  48  76 E3        29.74S
HILL CITY      CLOUDY    59  54  83 NE9       29.78R
6HR MIN TEMP:  58; 6HR MAX TEMP:  67; 6HR PCP:  0.01;

RUSSELL        CLOUDY    57  55  93 CALM      29.71F
6HR MIN TEMP:  56; 6HR MAX TEMP:  71; 6HR PCP:  0.39;

$$

KSZ061>065-074>080-084>089-280700-
SOUTHWEST KANSAS

CITY           SKY/WX    TMP DP  RH WIND       PRES   REMARKS
DODGE CITY     CLOUDY    56  51  84 W13       29.80R
6HR MIN TEMP:  56; 6HR MAX TEMP:  70;

ELKHART          N/A     52  43  72 NW12        N/A
GARDEN CITY    MOCLDY    53  49  86 W12       29.84R
6HR MIN TEMP:  52; 6HR MAX TEMP:  68;

GREAT BEND     CLOUDY    57  48  72 NE9       29.72F
LIBERAL        CLEAR     55  45  67 NW12      29.87R
PRATT          CLOUDY    60  58  92 N7        29.70S
6HR MIN TEMP:  60; 6HR MAX TEMP:  73;

$$

KSZ066>073-081>083-090>101-280700-
SOUTHEAST KANSAS

CITY           SKY/WX    TMP DP  RH WIND       PRES   REMARKS
CHANUTE        PTCLDY    61  58  90 SE12      29.75R
6HR MIN TEMP:  61; 6HR MAX TEMP:  74; 6HR PCP:  0.18;

COFFEYVILLE    PTCLDY    60  59  96 E6        29.76F
6HR MIN TEMP:  60; 6HR MAX TEMP:  75; 6HR PCP:  0.49;

HUTCHINSON     CLOUDY    61  57  87 NE10      29.71S
6HR MIN TEMP:  60; 6HR MAX TEMP:  69; 6HR PCP:  0.04;

MEDICINE LODGE   N/A     62  50  64 SW9       29.70S
NEWTON         MOCLDY    59  54  82 CALM      29.73S
PARSONS        PTCLDY    61  59  93 VRB5      29.77F
6HR MIN TEMP:  60; 6HR MAX TEMP:  74; 6HR PCP:  0.33;

WICHITA INTL   MOCLDY    64  59  83 S15       29.69F
6HR MIN TEMP:  62; 6HR MAX TEMP:  67;

WICHITA JABRA  CLOUDY    63  59  87 S13       29.70S
6HR MIN TEMP:  60; 6HR MAX TEMP:  64; 6HR PCP: TRACE;

WICHITA MCCONL CLOUDY    63  59  86 S13       29.70F
WINFIELD       CLEAR     62  59  90 SE10      29.73F
6HR MIN TEMP:  61; 6HR MAX TEMP:  63; 6HR PCP:  0.14;

$$

KSZ007>012-019>026-033>040-048>060-102>105-280700-
NORTHEAST KANSAS

CITY           SKY/WX    TMP DP  RH WIND       PRES   REMARKS
CONCORDIA      LGT RAIN  59  57  93 E3        29.75F
6HR MIN TEMP:  59; 6HR MAX TEMP:  70; 6HR PCP:  0.03;

EMPORIA        CLOUDY    60  57  89 S13       29.71S
6HR MIN TEMP:  59; 6HR MAX TEMP:  61; 6HR PCP:  0.29;

LAWRENCE       CLOUDY    59  58  96 SE6       29.75R
6HR MIN TEMP:  59; 6HR MAX TEMP:  71; 6HR PCP:  0.40;

MANHATTAN      MOCLDY    59  56  89 NW5       29.75R
6HR MIN TEMP:  58; 6HR MAX TEMP:  62; 6HR PCP:  0.17;

MARYSVILLE     CLOUDY    59  57  94 CALM      29.75R
OLATHE IND     MOCLDY    59  58  96 SE5       29.76R
6HR MIN TEMP:  59; 6HR MAX TEMP:  71; 6HR PCP:  0.25;

OLATHE EXE     MOCLDY    58  57  97 CALM      29.75S
6HR MIN TEMP:  58; 6HR MAX TEMP:  71; 6HR PCP:  0.21;

SALINA         RAIN      61  57  87 N13       29.72F
6HR MIN TEMP:  60; 6HR MAX TEMP:  68; 6HR PCP:  0.09;

TOPEKA BILLARD CLOUDY    60  58  92 SE3       29.74R
6HR MIN TEMP:  60; 6HR MAX TEMP:  72; 6HR PCP:  0.06;

TOPEKA FORBES  CLOUDY    60  58  92 SE6       29.74R
6HR MIN TEMP:  60; 6HR MAX TEMP:  72; 6HR PCP:  0.10;

$$




USA.gov is the U.S. government's official web portal to all federal, state and local government web resources and services.